• Join FlightAware (Why Join?)
  • Login
  • US Flag GB Flag 
11:34 EST


 

Airport Tracker/Info


-or-


 

Live Flight TrackerFlight Track Log ✈ JZA8193 ✈ 14-Jun-2013 ✈ CYKA - CYVR

Flight Track Log - Related Links

Times and Time Zones

All times are in EDT time to prevent confusion due to time zone crossing. See the JZA8193 flight status page for this flight to view local times or setup timezone preferences in your user account.

Time Position Orientation Groundspeed Altitude Reporting Facility
EDT Latitude Longitude Course Direction KTS MPH feet Rate Location/Type
14:55 50.7000 -120.5000 225° Southwest 120 138 3,400  Level Vancouver Center
14:56 50.7167 -120.5500 298° West 130 150 4,500 1,210 Climbing Vancouver Center
14:57 50.7167 -120.6000 270° West 140 161 5,800 1,250 Climbing Vancouver Center
14:58 50.7333 -120.6833 288° West 140 161 7,000 1,250 Climbing Vancouver Center
14:59 50.7000 -120.7333 224° Southwest 140 161 8,300 1,350 Climbing Vancouver Center
15:00 50.3805 -120.8903 225° Southwest  Level FlightAware Approximate
15:00 50.6667 -120.7667 212° Southwest 150 173 9,700  Level Vancouver Center
15:01 50.6333 -120.8000 212° Southwest 150 173 10,800 1,150 Climbing Vancouver Center
15:02 50.5833 -120.8333 203° Southwest 160 184 12,000 1,150 Climbing Vancouver Center
15:03 50.5500 -120.8833 224° Southwest 160 184 13,100 900 Climbing Vancouver Center
15:04 50.5167 -120.9167 212° Southwest 170 196 13,800 600 Climbing Vancouver Center
15:05 50.4667 -120.9667 212° Southwest 200 230 14,300 900 Climbing Vancouver Center
15:06 50.4167 -121.0167 213° Southwest 210 242 15,600 850 Climbing Vancouver Center
15:07 50.3500 -121.0833 213° Southwest 210 242 16,000 200 Climbing Vancouver Center
15:08 50.3167 -121.1500 232° Southwest 240 276 16,000  Level Vancouver Center
15:09 50.2500 -121.2167 213° Southwest 260 299 16,000  Level Vancouver Center
15:10 50.2000 -121.2667 213° Southwest 270 311 16,000  Level Vancouver Center
15:11 50.1333 -121.3500 219° Southwest 270 311 16,000  Level Vancouver Center
15:12 50.0667 -121.4000 206° Southwest 270 311 16,000  Level Vancouver Center
15:13 50.0167 -121.4833 227° Southwest 270 311 16,000  Level Vancouver Center
15:14 49.9500 -121.5333 206° Southwest 270 311 16,000  Level Vancouver Center
15:15 49.8833 -121.6167 219° Southwest 270 311 16,000  Level Vancouver Center
15:16 49.8333 -121.7000 227° Southwest 270 311 16,000  Level Vancouver Center
15:17 49.7667 -121.7833 219° Southwest 270 311 16,000  Level Vancouver Center
15:18 49.7167 -121.8667 227° Southwest 270 311 16,000 -50 Level Vancouver Center
15:19 49.6500 -121.9500 219° Southwest 270 311 15,900 -700 Descending Vancouver Center
15:20 49.6167 -122.0167 232° Southwest 290 334 14,600 -1,300 Descending Vancouver Center
15:21 49.5500 -122.1333 229° Southwest 290 334 13,300 -1,250 Descending Vancouver Center
15:22 49.5000 -122.2000 221° Southwest 290 334 12,100 -1,300 Descending Vancouver Center
15:23 49.4333 -122.2833 219° Southwest 290 334 10,700 -1,050 Descending Vancouver Center
15:24 49.3833 -122.3667 227° Southwest 290 334 10,000 -350 Descending Vancouver Center
15:25 49.3333 -122.4667 233° Southwest 270 311 10,000  Level Vancouver Center
15:26 49.3000 -122.5667 243° Southwest 270 311 10,000  Level Vancouver Center
15:27 49.2667 -122.6500 239° Southwest 260 299 10,000  Level Vancouver Center
15:28 49.2500 -122.7833 259° West 260 299 10,000  Level Vancouver Center
15:29 49.2333 -122.8833 256° West 260 299 10,000  Level Vancouver Center
15:30 49.2333 -122.9833 270° West 250 288 10,000 -350 Level Vancouver Center
15:31 49.2500 -123.0833 284° West 260 299 9,300 -1,850 Descending Vancouver Center
15:32 49.2500 -123.2167 270° West 260 299 6,300 -3,000 Descending Vancouver Center
15:33 49.2667 -123.3167 284° West 260 299 3,300 -1,650 Descending Vancouver Center
15:34 49.2333 -123.3833 233° Southwest 220 253 3,000 -500 Descending Vancouver Center
15:35 49.2000 -123.3667 162° South 180 207 2,300 -800 Descending Vancouver Center
15:36 49.2000 -123.2833 90° East 170 196 1,400 -800 Descending Vancouver Center
15:37 49.1833 -123.2333 117° Southeast 130 150 700 -700 Descending Vancouver Center